AirNav   TITAN Aviation Fuels
 
 410 users online  

9I0 Havana Regional Airport
Havana, Illinois, USA

GOING TO HAVANA?


FAA INFORMATION EFFECTIVE 03 NOVEMBER 2022

Location

FAA Identifier: 9I0
Lat/Long: 40-13-21.6950N 090-01-22.0150W
40-13.361583N 090-01.366917W
40.2226931,-90.0227819
(estimated)
Elevation: 488.2 ft. / 148.8 m (surveyed)
Variation: 01E (1985)
From city: 5 miles SE of HAVANA, IL
Time zone: UTC -6 (UTC -5 during Daylight Saving Time)
Zip code: 62644

Airport Operations

Airport use: Open to the public
Activation date: 03/1985
Control tower: no
ARTCC: KANSAS CITY CENTER
FSS: KANKAKEE FLIGHT SERVICE STATION
NOTAMs facility: IKK (NOTAM-D service available)
Attendance: IREG
Wind indicator: lighted
Segmented circle: no
Beacon: white-green (lighted land airport)
Operates sunset to sunrise.

Airport Communications

CTAF: 122.9

Nearby radio navigation aids

VOR radial/distance  VOR name  Freq  Var
SPIr326/27.9SPINNER VORTAC112.7001W
PIAr197/29.4PEORIA VORTAC115.2004E

 
NDB name  Hdg/Dist  Freq  Var  ID
MACOMB125/30.325101EJZY .--- --.. -.--
ABRAHAM277/31.632900EAAA .- .- .-

Airport Services

Fuel available: 100LL
100LL:SELF SVC FUEL AVBL 24 HRS.
Parking: tiedowns
Airframe service: NONE
Powerplant service: NONE
Bottled oxygen: NONE
Bulk oxygen: NONE

Runway Information

Runway 9/27

Dimensions: 2235 x 100 ft. / 681 x 30 m
Surface: turf, in good condition
Runway edge lights: medium intensity
RUNWAY 9  RUNWAY 27
Latitude: 40-13.360833N40-13.362333N
Longitude: 090-01.607000W090-01.126833W
Elevation: 485.5 ft.488.2 ft.
Traffic pattern: leftleft
Touchdown point: yes, no lightsyes, no lights

Airport Ownership and Management from official FAA records

Ownership: Publicly-owned
Owner: HAVANA REGIONAL PORT DISTRICT
17787 SHERWOOD FOREST RD
HAVANA, IL 62644
Phone (217) 725-0628
Manager: BOB MARTIN
18206 QUIVER BEACH RD
HAVANA, IL 62644-6895
Phone 309-543-9006
EMAIL ADDRESS: FLYBYEWIRE@GMAIL.COM (ALL LOWER CASE)

Airport Operational Statistics

Aircraft based on the field: 13
Single engine airplanes: 13
    
Aircraft operations: avg 27/week *
71% local general aviation
29% transient general aviation
* for 12-month period ending 31 March 2020

Additional Remarks

FOR CD CTC ST LOUIS APCH 314-890-1017. WHEN ST LOUIS APCH IS CLSD, CTC KANSAS CITY ARTCC AT 913-254-8508.

Instrument Procedures

There are no published instrument procedures at 9I0.

Some nearby airports with instrument procedures:

KCTK - Ingersoll Airport (21 nm N)
C15 - Pekin Municipal Airport (22 nm NE)
KSPI - Abraham Lincoln Capital Airport (28 nm SE)
KIJX - Jacksonville Municipal Airport (29 nm S)
KPIA - General Downing - Peoria International Airport (30 nm NE)
 
Loc | Ops | Rwys | IFR | FBO | Links
Com | Nav | Svcs | Stats | Notes
Area around 9I0 (Havana Regional Airport)
 
Road maps at: MapQuest Bing Google
 
Aerial photo
WARNING: Photo may not be current or correct
Aerial photo of 9I0 (Havana Regional Airport)
Taken mid June 2008

Do you have a better or more recent aerial photo of Havana Regional Airport that you would like to share? If so, please send us your photo.

 
Sectional chart

 
Airport distance calculator
Flying to Havana Regional Airport? Find the distance to fly.

From to 9I0

Sunrise and sunset
Times for 26-Nov-2022
 Local
(UTC-6)
 Zulu
(UTC)
Morning civil twilight06:2912:29
Sunrise06:5912:59
Sunset16:3622:36
Evening civil twilight17:0623:06

Current date and time
Zulu (UTC)  26-Nov-2022 10:27:15
Local (UTC-6)  26-Nov-2022 04:27:15
 
METAR
KSPI 
27nm SE 
260952Z AUTO 00000KT 10SM CLR 01/M04 A3016 RMK AO2 SLP216 T00061039
KIJX 
29nm S 
261015Z AUTO 17003KT 10SM CLR M03/M03 A3015 RMK AO2 T10261027
KPIA 
31nm NE 
260954Z 21003KT 10SM CLR M01/M04 A3016 RMK AO2 SLP217 T10111044
KAAA 
32nm E 
261015Z AUTO 00000KT 10SM CLR M04/M06 A3017 RMK AO2 T10431059
KMQB 
34nm NW 
261015Z AUTO 22003KT 10SM CLR 00/M04 A3016 RMK AO2 T00011037
KI63 
39nm W 
261015Z AUTO 21003KT 10SM CLR M01/M04 A3013 RMK AO2 T10151040
KGBG 
47nm NW 
261015Z AUTO 20004KT 10SM CLR M02/M03 A3014 RMK AO2 T10181032
KPPQ 
50nm SW 
261015Z AUTO 00000KT 10SM CLR M01/M02 A3016 RMK AO2 T10071017
TAF
KSPI 
27nm SE 
260520Z 2606/2706 20005KT P6SM SKC FM261600 18010KT P6SM SCT250 FM262300 15007KT P6SM SCT080 BKN180 FM270300 10005KT 6SM -RA SCT020 BKN050 FM270500 06008KT 4SM -RA SCT012 BKN020
KPIA 
31nm NE 
260520Z 2606/2706 20005KT P6SM SKC FM261600 19010KT P6SM SCT250 FM262300 16007KT P6SM SCT080 BKN180 FM270500 11008KT 6SM -RA SCT020 BKN050
NOTAMs
Click for the latest NOTAMs
NOTAMs are issued by the DoD/FAA and will open in a separate window not controlled by AirNav.

 

 
 

FBO, Fuel Providers, and Aircraft Ground Support

  
 Business Name 
 
 Contact 
 
 Services / Description 
 
Fuel Prices
 
Comments
  
Havana Regional Airport 309-543-9006
[web site]
[email]
Aviation fuel, Aircraft parking (ramp or tiedown), Courtesy cars (free for pilots to use in the local area), ...

More info about Havana Regional Airport
independent
100LL
SS $6.95 
 Updated 02-Sep-2022
 
   write
SS=Self service
Update Fuel Prices
 

Would you like to see your business listed on this page?

 If your business provides an interesting product or service to pilots, flight crews, aircraft, or users of the Havana Regional Airport, you should consider listing it here.  To start the listing process, click on the button below
 
Add a business
 

Other Pages about Havana Regional Airport

www.havanaregionalairport.com
 
Update a link
 
Copyright © AirNav, LLC. All rights reserved. Privacy Policy  Contact